DW8690 Weather Reports


time (UTC)temp
C
wind
direction
speed
KPH
gust
KPH
rain 1hr
cm
rain 24hr
cm
rain mn
cm
humidity
%
barometer
mb
20260503070405 11 0 0.0 1.6 0.00 0.00 0.00 63 1010.1
20260503070305 11 0 0.0 3.2 0.00 0.00 0.00 63 1010.1
20260503070205 11 0 0.0 3.2 0.00 0.00 0.00 63 1010.1
20260503070104 11 0 0.0 3.2 0.00 0.00 0.00 63 1010.0
20260503060304 12 0 0.0 1.6 0.00 0.00 0.00 62 1010.2
20260503060205 12 0 0.0 1.6 0.00 0.00 0.00 62 1010.1
20260503055105 12 0 0.0 6.4 0.00 0.00 0.00 62 1010.1
20260503055004 12 0 0.0 6.4 0.00 0.00 0.00 62 1010.0
20260503054905 12 0 0.0 6.4 0.00 0.00 0.00 61 1010.1
20260503054804 12 0 0.0 6.4 0.00 0.00 0.00 62 1010.1
20260503054705 12 0 0.0 6.4 0.00 0.00 0.00 61 1010.0
20260503054605 12 0 0.0 6.4 0.00 0.00 0.00 61 1009.9
20260503054505 12 130 1.6 6.4 0.00 0.00 0.00 61 1010.0
20260503054405 12 0 0.0 6.4 0.00 0.00 0.00 61 1010.1
20260503054305 12 129 3.2 6.4 0.00 0.00 0.00 61 1010.1
20260503054205 12 123 3.2 6.4 0.00 0.00 0.00 61 1010.2
20260503054105 12 124 3.2 11.3 0.00 0.00 0.00 61 1010.3
20260503054005 12 112 3.2 12.9 0.00 0.00 0.00 61 1010.1
20260503053904 12 108 3.2 12.9 0.00 0.00 0.00 61 1010.2
20260503053805 12 105 3.2 12.9 0.00 0.00 0.00 61 1010.3
20260503053704 12 102 3.2 12.9 0.00 0.00 0.00 61 1010.2
20260503053606 12 0 0.0 12.9 0.00 0.00 0.00 62 1010.2
20260503053505 12 0 0.0 12.9 0.00 0.00 0.00 62 1010.2
20260503053405 12 94 1.6 16.1 0.00 0.00 0.00 62 1010.3
20260503053305 12 93 3.2 16.1 0.00 0.00 0.00 62 1010.3
20260503053205 12 93 6.4 16.1 0.00 0.00 0.00 63 1010.3
20260503053105 12 90 9.7 16.1 0.00 0.00 0.00 63 1010.3
20260503053004 12 90 6.4 16.1 0.00 0.00 0.00 63 1010.2
20260503052905 12 91 6.4 16.1 0.00 0.00 0.00 63 1010.3
20260503052805 12 92 6.4 16.1 0.00 0.00 0.00 62 1010.3
20260503052705 12 92 6.4 16.1 0.00 0.00 0.00 62 1010.2
20260503052605 11 94 9.7 16.1 0.00 0.00 0.00 62 1010.3
20260503052505 11 98 8.0 16.1 0.00 0.00 0.00 61 1010.1
20260503052405 11 104 6.4 11.3 0.00 0.00 0.00 60 1010.2
20260503052205 11 120 3.2 6.4 0.00 0.00 0.00 57 1010.3
20260503052105 11 131 3.2 6.4 0.00 0.00 0.00 56 1010.2
20260503052005 11 0 0.0 3.2 0.00 0.00 0.00 55 1010.2
20260503051905 11 0 0.0 3.2 0.00 0.00 0.00 55 1010.1
20260503051605 11 0 0.0 3.2 0.00 0.00 0.00 55 1010.0
20260503051405 11 0 0.0 1.6 0.00 0.00 0.00 56 1010.0
20260503051205 11 0 0.0 1.6 0.00 0.00 0.00 55 1009.9
20260503051105 11 0 0.0 1.6 0.00 0.00 0.00 54 1009.9
20260503051004 11 0 0.0 1.6 0.00 0.00 0.00 54 1009.9
20260503050905 11 0 0.0 1.6 0.00 0.00 0.00 53 1009.9
20260503050804 11 0 0.0 1.6 0.00 0.00 0.00 52 1009.8
20260503050604 12 0 0.0 1.6 0.00 0.00 0.00 51 1010.0
20260503050505 12 0 0.0 3.2 0.00 0.00 0.00 51 1010.0
20260503050405 12 0 0.0 4.8 0.00 0.00 0.00 51 1009.9
20260503050306 12 0 0.0 6.4 0.00 0.00 0.00 51 1009.9
20260503050105 12 0 0.0 6.4 0.00 0.00 0.00 51 1009.9
20260503050006 12 0 0.0 6.4 0.00 0.00 0.00 51 1009.9
20260503045905 12 0 0.0 6.4 0.00 0.00 0.00 51 1009.9
20260503045805 12 0 0.0 6.4 0.00 0.00 0.00 50 1009.8
20260503045705 12 0 0.0 6.4 0.00 0.00 0.00 50 1009.9
20260503045604 12 0 0.0 6.4 0.00 0.00 0.00 50 1009.9
20260503045505 12 87 3.2 6.4 0.00 0.00 0.00 49 1009.9
20260503045405 12 88 3.2 6.4 0.00 0.00 0.00 49 1009.9
20260503045305 12 89 3.2 6.4 0.00 0.00 0.00 49 1009.9
20260503045204 12 102 3.2 6.4 0.00 0.00 0.00 49 1009.8
20260503045105 12 106 3.2 6.4 0.00 0.00 0.00 49 1009.8
20260503045005 12 122 3.2 6.4 0.00 0.00 0.00 49 1009.8
20260503044905 12 0 0.0 1.6 0.00 0.00 0.00 49 1009.8
20260503044705 12 0 0.0 1.6 0.00 0.00 0.00 49 1009.7
20260503044605 12 0 0.0 1.6 0.00 0.00 0.00 48 1009.8
20260503044505 12 0 0.0 1.6 0.00 0.00 0.00 48 1009.8
20260503044405 13 0 0.0 1.6 0.00 0.00 0.00 48 1009.7
20260503044304 13 0 0.0 1.6 0.00 0.00 0.00 48 1009.8
20260503044205 13 0 0.0 1.6 0.00 0.00 0.00 47 1009.7
20260503044104 13 0 0.0 1.6 0.00 0.00 0.00 47 1009.7
20260503043905 13 0 0.0 3.2 0.00 0.00 0.00 47 1009.6
20260503043805 13 0 0.0 3.2 0.00 0.00 0.00 47 1009.6
20260503043605 13 0 0.0 3.2 0.00 0.00 0.00 46 1009.6
20260503043504 13 0 0.0 3.2 0.00 0.00 0.00 46 1009.5
20260503043305 13 0 0.0 3.2 0.00 0.00 0.00 46 1009.6
20260503043104 13 0 0.0 3.2 0.00 0.00 0.00 46 1009.5
20260503043005 13 0 0.0 3.2 0.00 0.00 0.00 45 1009.5
20260503042905 13 0 0.0 1.6 0.00 0.00 0.00 44 1009.5
20260503042605 13 0 0.0 3.2 0.00 0.00 0.00 44 1009.5
20260503042505 13 0 0.0 3.2 0.00 0.00 0.00 44 1009.6
20260503042405 13 0 0.0 3.2 0.00 0.00 0.00 43 1009.5
20260503042305 13 0 0.0 3.2 0.00 0.00 0.00 43 1009.5
20260503042204 13 0 0.0 3.2 0.00 0.00 0.00 43 1009.5
20260503042105 13 0 0.0 3.2 0.00 0.00 0.00 43 1009.5
20260503042004 13 0 0.0 3.2 0.00 0.00 0.00 43 1009.5
20260503041905 13 0 0.0 3.2 0.00 0.00 0.00 43 1009.5
20260503041805 13 112 1.6 3.2 0.00 0.00 0.00 43 1009.5
20260503041705 13 0 0.0 3.2 0.00 0.00 0.00 43 1009.5
20260503041605 13 0 0.0 3.2 0.00 0.00 0.00 43 1009.5
20260503041505 13 0 0.0 3.2 0.00 0.00 0.00 44 1009.5
20260503041405 13 0 0.0 3.2 0.00 0.00 0.00 43 1009.4
20260503041305 13 0 0.0 3.2 0.00 0.00 0.00 44 1009.4
20260503041204 13 0 0.0 3.2 0.00 0.00 0.00 44 1009.5
20260503041105 13 0 0.0 1.6 0.00 0.00 0.00 44 1009.5
20260503040905 13 0 0.0 1.6 0.00 0.00 0.00 44 1009.5
20260503040805 13 0 0.0 1.6 0.00 0.00 0.00 44 1009.5
20260503040705 13 0 0.0 0.0 0.00 0.00 0.00 43 1009.5
20260503040604 13 0 0.0 0.0 0.00 0.00 0.00 43 1009.4
20260503040505 13 0 0.0 0.0 0.00 0.00 0.00 43 1009.5
20260503040405 13 0 0.0 1.6 0.00 0.00 0.00 43 1009.4
20260503040305 13 0 0.0 1.6 0.00 0.00 0.00 43 1009.4
20260503040104 13 0 0.0 3.2 0.00 0.00 0.00 43 1009.4
20260503035905 13 0 0.0 3.2 0.00 0.00 0.00 43 1009.3
20260503035804 13 0 0.0 3.2 0.00 0.00 0.00 43 1009.3
20260503035605 13 0 0.0 3.2 0.00 0.00 0.00 43 1009.3
20260503035405 13 0 0.0 3.2 0.00 0.00 0.00 43 1009.3
20260503035305 13 0 0.0 3.2 0.00 0.00 0.00 43 1009.3
20260503035205 14 107 1.6 3.2 0.00 0.00 0.00 42 1009.3
20260503035105 14 108 1.6 3.2 0.00 0.00 0.00 42 1009.4
20260503035005 14 114 1.6 3.2 0.00 0.00 0.00 42 1009.3
20260503034905 14 122 1.6 3.2 0.00 0.00 0.00 42 1009.3
20260503034705 14 0 0.0 3.2 0.00 0.00 0.00 41 1009.2
20260503034604 14 0 0.0 3.2 0.00 0.00 0.00 41 1009.1
20260503034504 14 0 0.0 4.8 0.00 0.00 0.00 40 1009.1
20260503034304 15 0 0.0 8.0 0.00 0.00 0.00 40 1009.0
20260503034205 15 0 0.0 8.0 0.00 0.00 0.00 40 1009.1
20260503034105 15 258 1.6 8.0 0.00 0.00 0.00 40 1009.0
20260503033905 15 0 0.0 8.0 0.00 0.00 0.00 40 1009.0
20260503033604 15 270 3.2 8.0 0.00 0.00 0.00 40 1008.9
20260503033505 15 270 3.2 8.0 0.00 0.00 0.00 41 1008.9
20260503033405 15 269 4.8 8.0 0.00 0.00 0.00 40 1008.9
20260503033305 15 267 3.2 4.8 0.00 0.00 0.00 40 1008.9
20260503033204 15 265 3.2 4.8 0.00 0.00 0.00 40 1008.9
20260503033005 15 263 1.6 3.2 0.00 0.00 0.00 40 1008.8
20260503032904 15 269 3.2 3.2 0.00 0.00 0.00 39 1008.9
20260503032805 15 271 1.6 3.2 0.00 0.00 0.00 40 1008.8
20260503032705 15 271 1.6 4.8 0.00 0.00 0.00 39 1008.8
20260503032605 15 271 1.6 4.8 0.00 0.00 0.00 39 1008.7
20260503032504 15 271 1.6 4.8 0.00 0.00 0.00 39 1008.8
20260503032305 15 0 0.0 4.8 0.00 0.00 0.00 39 1008.8
20260503032204 15 0 0.0 4.8 0.00 0.00 0.00 39 1008.7
20260503032005 15 260 1.6 6.4 0.00 0.00 0.00 39 1008.7
20260503031905 15 256 1.6 6.4 0.00 0.00 0.00 39 1008.8
20260503031805 15 254 1.6 6.4 0.00 0.00 0.00 39 1008.8
20260503031705 15 252 3.2 6.4 0.00 0.00 0.00 39 1008.8
20260503031505 15 245 1.6 6.4 0.00 0.00 0.00 38 1008.8
20260503031406 15 240 3.2 6.4 0.00 0.00 0.00 38 1008.8
20260503031304 15 239 3.2 6.4 0.00 0.00 0.00 38 1008.8
20260503031105 15 235 3.2 4.8 0.00 0.00 0.00 37 1008.8
20260503031005 15 255 1.6 4.8 0.00 0.00 0.00 37 1008.8
20260503030904 15 0 0.0 1.6 0.00 0.00 0.00 37 1008.8
20260503030805 15 0 0.0 1.6 0.00 0.00 0.00 37 1008.8
20260503030708 15 0 0.0 1.6 0.00 0.00 0.00 35 1008.6
20260503030605 15 0 0.0 1.6 0.00 0.00 0.00 35 1008.8
20260503030504 15 0 0.0 3.2 0.00 0.00 0.00 35 1008.8
20260503030405 15 0 0.0 3.2 0.00 0.00 0.00 35 1008.7
20260503030305 15 0 0.0 3.2 0.00 0.00 0.00 35 1008.7
20260503030205 15 0 0.0 3.2 0.00 0.00 0.00 35 1008.7
20260503030105 15 0 0.0 3.2 0.00 0.00 0.00 35 1008.7
20260503030004 16 0 0.0 3.2 0.00 0.00 0.00 35 1008.6
20260503025905 16 0 0.0 3.2 0.00 0.00 0.00 34 1008.7
20260503025805 16 0 0.0 3.2 0.00 0.00 0.00 34 1008.6
20260503025605 16 0 0.0 3.2 0.00 0.00 0.00 34 1008.5
20260503025504 16 0 0.0 3.2 0.00 0.00 0.00 34 1008.5
20260503025305 16 319 1.6 3.2 0.00 0.00 0.00 34 1008.6
20260503025204 16 340 1.6 3.2 0.00 0.00 0.00 34 1008.5
20260503025105 16 125 1.6 3.2 0.00 0.00 0.00 34 1008.6
20260503024805 17 0 0.0 3.2 0.00 0.00 0.00 33 1008.6
20260503024704 17 0 0.0 3.2 0.00 0.00 0.00 33 1008.6
20260503024604 17 0 0.0 3.2 0.00 0.00 0.00 33 1008.8
20260503024505 17 0 0.0 3.2 0.00 0.00 0.00 33 1008.7
20260503024405 17 0 0.0 3.2 0.00 0.00 0.00 33 1008.6
20260503024305 17 0 0.0 3.2 0.00 0.00 0.00 32 1008.8
20260503024205 17 0 0.0 3.2 0.00 0.00 0.00 32 1008.7
20260503024105 17 63 1.6 3.2 0.00 0.00 0.00 30 1008.6
20260503023905 17 63 3.2 3.2 0.00 0.00 0.00 30 1008.6
20260503023805 17 63 1.6 4.8 0.00 0.00 0.00 30 1008.5
20260503023706 17 66 1.6 4.8 0.00 0.00 0.00 30 1008.6
20260503023605 17 0 0.0 4.8 0.00 0.00 0.00 30 1008.7
20260503023504 17 0 0.0 4.8 0.00 0.00 0.00 30 1008.7
20260503023405 17 0 0.0 4.8 0.00 0.00 0.00 30 1008.7
20260503023304 17 0 0.0 11.3 0.00 0.00 0.00 30 1008.7
20260503023206 17 0 0.0 11.3 0.00 0.00 0.00 30 1008.5
20260503023105 17 0 0.0 11.3 0.00 0.00 0.00 30 1008.7
20260503023005 17 64 1.6 11.3 0.00 0.00 0.00 30 1008.6
20260503022905 18 63 3.2 11.3 0.00 0.00 0.00 30 1008.7
20260503022705 18 0 0.0 11.3 0.00 0.00 0.00 30 1008.6
20260503022604 18 64 1.6 11.3 0.00 0.00 0.00 30 1008.6
20260503022404 18 63 1.6 11.3 0.00 0.00 0.00 29 1008.7
20260503022305 18 65 3.2 11.3 0.00 0.00 0.00 28 1008.7
20260503022205 18 78 3.2 6.4 0.00 0.00 0.00 28 1008.6
20260503022104 18 80 1.6 6.4 0.00 0.00 0.00 28 1008.8
20260503022005 18 0 0.0 6.4 0.00 0.00 0.00 28 1008.8
20260503021904 18 0 0.0 6.4 0.00 0.00 0.00 28 1008.8
20260503021805 18 0 0.0 6.4 0.00 0.00 0.00 28 1008.8
20260503021704 18 0 0.0 6.4 0.00 0.00 0.00 28 1008.8
20260503021605 18 87 1.6 9.7 0.00 0.00 0.00 27 1008.8
20260503021504 18 88 1.6 9.7 0.00 0.00 0.00 27 1008.8
20260503021405 18 88 3.2 9.7 0.00 0.00 0.00 27 1008.8
20260503021304 18 88 3.2 9.7 0.00 0.00 0.00 27 1008.8
20260503021205 18 88 3.2 9.7 0.00 0.00 0.00 27 1008.8
20260503021104 18 90 3.2 9.7 0.00 0.00 0.00 27 1008.8
20260503021005 18 90 3.2 9.7 0.00 0.00 0.00 27 1008.8
20260503020904 18 90 4.8 12.9 0.00 0.00 0.00 27 1008.8
20260503020705 18 93 6.4 12.9 0.00 0.00 0.00 27 1008.8
20260503020505 18 90 6.4 12.9 0.00 0.00 0.00 27 1008.8
20260503020404 18 90 6.4 12.9 0.00 0.00 0.00 27 1008.8
20260503020305 18 90 6.4 12.9 0.00 0.00 0.00 27 1008.9
20260503020204 18 90 6.4 12.9 0.00 0.00 0.00 27 1008.9
20260503020105 18 90 6.4 17.7 0.00 0.00 0.00 27 1008.9
20260503020004 18 90 8.0 17.7 0.00 0.00 0.00 27 1008.9
20260503015905 18 92 8.0 17.7 0.00 0.00 0.00 27 1008.8
20260503015804 18 93 6.4 17.7 0.00 0.00 0.00 27 1008.8
20260503015705 18 91 8.0 17.7 0.00 0.00 0.00 27 1008.9
20260503015605 18 91 8.0 17.7 0.00 0.00 0.00 27 1008.9
20260503015505 18 93 6.4 17.7 0.00 0.00 0.00 27 1008.9
20260503015405 18 93 4.8 17.7 0.00 0.00 0.00 27 1008.9
20260503015205 19 91 8.0 17.7 0.00 0.00 0.00 27 1009.0
20260503015105 19 90 11.3 17.7 0.00 0.00 0.00 27 1008.9
20260503015005 19 89 12.9 16.1 0.00 0.00 0.00 27 1008.9
20260503014905 19 82 6.4 11.3 0.00 0.00 0.00 27 1009.0
20260503014805 19 73 6.4 6.4 0.00 0.00 0.00 27 1009.0
20260503014705 19 69 6.4 6.4 0.00 0.00 0.00 27 1009.0
20260503014605 19 60 4.8 6.4 0.00 0.00 0.00 26 1009.0
20260503014505 19 52 4.8 6.4 0.00 0.00 0.00 26 1008.9
20260503014405 19 30 3.2 4.8 0.00 0.00 0.00 26 1008.9
20260503014104 19 259 1.6 6.4 0.00 0.00 0.00 26 1009.0
20260503013905 19 0 0.0 8.0 0.00 0.00 0.00 26 1008.9
20260503013804 19 0 0.0 8.0 0.00 0.00 0.00 26 1008.9
20260503013705 19 0 0.0 8.0 0.00 0.00 0.00 26 1008.9
20260503013605 19 255 1.6 8.0 0.00 0.00 0.00 26 1008.8
20260503013505 19 255 1.6 8.0 0.00 0.00 0.00 27 1008.8
20260503013404 19 258 3.2 8.0 0.00 0.00 0.00 27 1008.8
20260503013305 19 261 3.2 8.0 0.00 0.00 0.00 26 1008.8
20260503013205 19 261 4.8 8.0 0.00 0.00 0.00 26 1008.7
20260503013105 19 260 4.8 8.0 0.00 0.00 0.00 25 1008.7
20260503013004 19 259 6.4 8.0 0.00 0.00 0.00 25 1008.7
20260503012906 19 256 4.8 8.0 0.00 0.00 0.00 25 1008.6
20260503012804 19 253 6.4 8.0 0.00 0.00 0.00 25 1008.7
20260503012705 19 251 6.4 8.0 0.00 0.00 0.00 25 1008.7
20260503012604 19 259 6.4 8.0 0.00 0.00 0.00 25 1008.8
20260503012505 19 258 3.2 8.0 0.00 0.00 0.00 25 1008.7
20260503012404 20 245 3.2 4.8 0.00 0.00 0.00 25 1008.7
20260503012306 20 233 3.2 4.8 0.00 0.00 0.00 24 1008.7
20260503012204 20 209 1.6 3.2 0.00 0.00 0.00 24 1008.7
20260503012104 20 0 0.0 3.2 0.00 0.00 0.00 24 1008.7
20260503011904 20 0 0.0 8.0 0.00 0.00 0.00 24 1008.8
20260503011805 20 0 0.0 8.0 0.00 0.00 0.00 24 1008.9
20260503011604 20 125 1.6 8.0 0.00 0.00 0.00 24 1008.8
20260503011505 20 116 1.6 8.0 0.00 0.00 0.00 24 1008.9
20260503011404 20 0 0.0 8.0 0.00 0.00 0.00 24 1009.0
20260503011305 20 0 0.0 8.0 0.00 0.00 0.00 24 1008.9
20260503011204 20 0 0.0 8.0 0.00 0.00 0.00 24 1008.9
20260503011105 20 96 1.6 8.0 0.00 0.00 0.00 24 1009.0
20260503011005 20 92 3.2 8.0 0.00 0.00 0.00 24 1009.0
20260503010905 20 0 0.0 9.7 0.00 0.00 0.00 24 1009.0
20260503010805 20 91 3.2 9.7 0.00 0.00 0.00 23 1009.0
20260503010704 20 91 6.4 9.7 0.00 0.00 0.00 24 1008.9
20260503010605 20 88 6.4 9.7 0.00 0.00 0.00 24 1008.9
20260503010504 20 81 6.4 9.7 0.00 0.00 0.00 24 1008.9
20260503010405 20 64 6.4 9.7 0.00 0.00 0.00 24 1009.1
20260503010205 20 359 6.4 11.3 0.00 0.00 0.00 24 1009.0
20260503010104 20 313 6.4 11.3 0.00 0.00 0.00 24 1009.0
20260503005904 20 287 1.6 11.3 0.00 0.00 0.00 25 1009.1
20260503005805 20 0 0.0 11.3 0.00 0.00 0.00 25 1009.1
20260503005704 20 291 1.6 12.9 0.00 0.00 0.00 24 1009.1
20260503005605 20 295 3.2 12.9 0.00 0.00 0.00 24 1009.0
20260503005504 20 294 3.2 12.9 0.00 0.00 0.00 24 1008.9
20260503005305 20 294 6.4 12.9 0.00 0.00 0.00 24 1008.9
20260503005104 20 299 4.8 12.9 0.00 0.00 0.00 24 1008.9
20260503004904 20 299 3.2 12.9 0.00 0.00 0.00 24 1008.9
20260503004805 20 297 4.8 12.9 0.00 0.00 0.00 24 1008.8
20260503004704 20 293 3.2 12.9 0.00 0.00 0.00 24 1008.9
20260503004605 20 287 3.2 12.9 0.00 0.00 0.00 24 1008.9
20260503004504 20 281 6.4 12.9 0.00 0.00 0.00 24 1008.9
20260503004405 20 279 4.8 9.7 0.00 0.00 0.00 23 1008.9
20260503004304 20 275 3.2 8.0 0.00 0.00 0.00 23 1008.9
20260503004205 20 271 3.2 11.3 0.00 0.00 0.00 23 1008.9
20260503004105 20 279 6.4 12.9 0.00 0.00 0.00 23 1008.8
20260503004005 20 288 6.4 12.9 0.00 0.00 0.00 23 1008.9
20260503003904 20 292 6.4 12.9 0.00 0.00 0.00 23 1008.9
20260503003805 20 297 6.4 12.9 0.00 0.00 0.00 23 1008.9
20260503003704 20 304 6.4 17.7 0.00 0.00 0.00 23 1008.9
20260503003604 20 305 6.4 17.7 0.00 0.00 0.00 23 1008.9
20260503003405 20 300 6.4 17.7 0.00 0.00 0.00 23 1008.9
20260503003305 20 304 4.8 17.7 0.00 0.00 0.00 23 1008.9
20260503003204 20 312 6.4 17.7 0.00 0.00 0.00 23 1008.9
20260503003105 20 304 6.4 17.7 0.00 0.00 0.00 24 1008.9
20260503002905 20 313 4.8 17.7 0.00 0.00 0.00 25 1008.8
20260503002804 20 313 4.8 17.7 0.00 0.00 0.00 25 1008.9
20260503002705 20 313 11.3 17.7 0.00 0.00 0.00 25 1008.8
20260503002605 20 320 6.4 17.7 0.00 0.00 0.00 25 1008.8
20260503002504 20 324 9.7 17.7 0.00 0.00 0.00 25 1008.9
20260503002305 20 333 9.7 17.7 0.00 0.00 0.00 26 1008.7
20260503002204 20 332 8.0 17.7 0.00 0.00 0.00 26 1008.8
20260503002105 20 330 9.7 17.7 0.00 0.00 0.00 26 1008.7
20260503002005 20 329 11.3 17.7 0.00 0.00 0.00 26 1008.7
20260503001905 20 324 11.3 17.7 0.00 0.00 0.00 26 1008.8
20260503001804 20 321 8.0 17.7 0.00 0.00 0.00 26 1008.7
20260503001705 20 317 6.4 17.7 0.00 0.00 0.00 25 1008.7
20260503001505 20 315 6.4 17.7 0.00 0.00 0.00 25 1008.8
20260503001404 20 315 6.4 17.7 0.00 0.00 0.00 25 1008.8
20260503001305 20 315 8.0 17.7 0.00 0.00 0.00 25 1008.8
20260503001205 20 318 9.7 17.7 0.00 0.00 0.00 25 1009.0
20260503001105 20 324 9.7 17.7 0.00 0.00 0.00 25 1008.9
20260503001005 20 322 12.9 17.7 0.00 0.00 0.00 25 1008.9
20260503000904 20 320 12.9 17.7 0.00 0.00 0.00 25 1008.9
20260503000805 20 331 9.7 17.7 0.00 0.00 0.00 25 1008.9
20260503000704 20 340 11.3 17.7 0.00 0.00 0.00 25 1008.9
20260503000605 20 338 6.4 17.7 0.00 0.00 0.00 25 1009.1
20260503000504 20 339 6.4 17.7 0.00 0.00 0.00 23 1009.0
20260503000304 20 333 11.3 17.7 0.00 0.00 0.00 23 1009.1
20260503000205 20 336 6.4 17.7 0.00 0.00 0.00 24 1009.1
20260503000105 20 331 4.8 17.7 0.00 0.00 0.00 24 1009.1
20260503000005 20 334 9.7 17.7 0.00 0.00 0.00 24 1009.1
20260502235904 20 344 6.4 17.7 0.00 0.00 0.00 24 1009.0
20260502235705 20 336 4.8 17.7 0.00 0.00 0.00 24 1009.0
20260502235604 20 355 9.7 17.7 0.00 0.00 0.00 23 1009.0
20260502235505 20 3 8.0 17.7 0.00 0.00 0.00 23 1009.1
20260502235404 20 27 12.9 17.7 0.00 0.00 0.00 23 1009.0
20260502235305 20 48 6.4 12.9 0.00 0.00 0.00 22 1008.9
20260502235105 20 72 3.2 17.7 0.00 0.00 0.00 22 1008.9
20260502235004 20 78 6.4 22.5 0.00 0.00 0.00 22 1009.0
20260502234705 20 83 4.8 22.5 0.00 0.00 0.00 23 1009.0
20260502234604 20 83 6.4 22.5 0.00 0.00 0.00 23 1008.9
20260502234505 20 83 8.0 22.5 0.00 0.00 0.00 22 1009.0
20260502234404 20 84 6.4 22.5 0.00 0.00 0.00 23 1009.1
20260502234304 20 84 8.0 22.5 0.00 0.00 0.00 22 1008.9
20260502234205 20 84 8.0 22.5 0.00 0.00 0.00 23 1008.9
20260502234104 20 84 12.9 22.5 0.00 0.00 0.00 23 1008.9
20260502234005 20 79 9.7 20.9 0.00 0.00 0.00 23 1008.9
20260502233904 20 74 12.9 22.5 0.00 0.00 0.00 23 1008.9
20260502233805 20 68 12.9 22.5 0.00 0.00 0.00 23 1008.9
20260502233705 20 71 12.9 27.4 0.00 0.00 0.00 23 1008.9
20260502233605 20 74 14.5 27.4 0.00 0.00 0.00 24 1008.8
20260502233505 20 77 9.7 27.4 0.00 0.00 0.00 24 1008.9
20260502233405 20 77 9.7 27.4 0.00 0.00 0.00 24 1008.7
20260502233204 20 75 12.9 27.4 0.00 0.00 0.00 24 1008.7
20260502233105 20 76 14.5 33.8 0.00 0.00 0.00 25 1008.7
20260502233005 20 79 14.5 33.8 0.00 0.00 0.00 25 1008.8
20260502232905 20 85 17.7 33.8 0.00 0.00 0.00 25 1008.7
20260502232704 20 80 16.1 33.8 0.00 0.00 0.00 25 1008.5
20260502232604 20 79 11.3 40.2 0.00 0.00 0.00 25 1008.6
20260502232505 20 75 12.9 40.2 0.00 0.00 0.00 25 1008.5
20260502232404 19 74 6.4 40.2 0.00 0.00 0.00 24 1008.5
20260502232305 19 75 12.9 40.2 0.00 0.00 0.00 25 1008.5
20260502232204 19 76 9.7 40.2 0.00 0.00 0.00 24 1008.6
20260502232005 19 79 22.5 40.2 0.00 0.00 0.00 30 1008.4
20260502231904 19 80 22.5 40.2 0.00 0.00 0.00 30 1008.5
20260502231805 19 82 20.9 40.2 0.00 0.00 0.00 32 1008.5
20260502231704 19 86 24.1 40.2 0.00 0.00 0.00 30 1008.5
20260502231605 19 84 27.4 37.0 0.00 0.00 0.00 33 1008.3
20260502231504 19 88 27.4 37.0 0.00 0.00 0.00 32 1008.3
20260502231404 20 89 24.1 37.0 0.00 0.00 0.00 32 1008.3
20260502231305 20 90 32.2 37.0 0.00 0.00 0.00 31 1008.3
20260502231204 20 90 20.9 33.8 0.00 0.00 0.00 27 1008.3
20260502231105 20 90 14.5 33.8 0.00 0.00 0.00 27 1008.3
20260502231004 20 89 20.9 33.8 0.00 0.00 0.00 26 1008.3
20260502230904 20 87 17.7 29.0 0.00 0.00 0.00 23 1008.3
20260502230704 20 87 20.9 29.0 0.00 0.00 0.00 24 1008.4
20260502230605 20 90 14.5 29.0 0.00 0.00 0.00 26 1008.3
20260502230404 20 90 12.9 29.0 0.00 0.00 0.00 26 1008.5
20260502230305 20 88 14.5 29.0 0.00 0.00 0.00 24 1008.4
20260502230204 20 83 17.7 33.8 0.00 0.00 0.00 24 1008.4
20260502230105 20 83 16.1 33.8 0.00 0.00 0.00 24 1008.5
20260502230005 20 80 19.3 33.8 0.00 0.00 0.00 22 1008.4
20260502225905 20 77 20.9 33.8 0.00 0.00 0.00 22 1008.4
20260502225804 20 76 20.9 33.8 0.00 0.00 0.00 21 1008.3
20260502225605 21 77 17.7 33.8 0.00 0.00 0.00 21 1008.3
20260502225404 21 72 17.7 33.8 0.00 0.00 0.00 19 1008.3
20260502225204 21 84 19.3 33.8 0.00 0.00 0.00 18 1008.1
20260502225105 21 81 16.1 33.8 0.00 0.00 0.00 19 1008.1
20260502225004 21 82 20.9 33.8 0.00 0.00 0.00 17 1008.2
20260502224805 21 88 20.9 33.8 0.00 0.00 0.00 16 1008.2
20260502224704 21 87 17.7 32.2 0.00 0.00 0.00 16 1008.2
20260502224605 21 87 20.9 32.2 0.00 0.00 0.00 16 1008.2
20260502224504 21 87 25.7 32.2 0.00 0.00 0.00 16 1008.2
20260502224405 21 90 17.7 30.6 0.00 0.00 0.00 14 1008.2
20260502224304 21 90 12.9 30.6 0.00 0.00 0.00 14 1008.3
20260502224104 21 90 8.0 30.6 0.00 0.00 0.00 14 1008.3
20260502224004 21 90 12.9 30.6 0.00 0.00 0.00 14 1008.4
20260502223905 22 90 17.7 30.6 0.00 0.00 0.00 14 1008.3
20260502223804 22 92 17.7 27.4 0.00 0.00 0.00 13 1008.3
20260502223705 22 92 17.7 25.7 0.00 0.00 0.00 13 1008.4
20260502223604 22 92 17.7 25.7 0.00 0.00 0.00 13 1008.5
20260502223504 22 95 12.9 25.7 0.00 0.00 0.00 13 1008.4
20260502223405 22 97 12.9 25.7 0.00 0.00 0.00 13 1008.4
20260502223304 22 94 14.5 20.9 0.00 0.00 0.00 12 1008.5
20260502223205 22 94 12.9 17.7 0.00 0.00 0.00 12 1008.4
20260502223104 22 95 11.3 17.7 0.00 0.00 0.00 11 1008.4
20260502223005 22 98 12.9 17.7 0.00 0.00 0.00 11 1008.5
20260502222905 22 102 9.7 17.7 0.00 0.00 0.00 11 1008.4
20260502222805 23 96 8.0 17.7 0.00 0.00 0.00 10 1008.4
20260502222705 23 95 9.7 17.7 0.00 0.00 0.00 10 1008.3
20260502222604 23 93 12.9 17.7 0.00 0.00 0.00 10 1008.5
20260502222505 23 85 12.9 17.7 0.00 0.00 0.00 10 1008.4
20260502222404 23 87 9.7 14.5 0.00 0.00 0.00 10 1008.4
20260502222305 23 94 6.4 14.5 0.00 0.00 0.00 10 1008.5
20260502222204 23 249 4.8 14.5 0.00 0.00 0.00 11 1008.4
20260502222005 23 229 1.6 14.5 0.00 0.00 0.00 10 1008.5
20260502221904 23 226 1.6 14.5 0.00 0.00 0.00 10 1008.4
20260502221804 23 226 3.2 14.5 0.00 0.00 0.00 10 1008.3
20260502221705 23 229 3.2 14.5 0.00 0.00 0.00 10 1008.4
20260502221504 23 224 1.6 17.7 0.00 0.00 0.00 10 1008.4
20260502221405 23 221 1.6 17.7 0.00 0.00 0.00 10 1008.4
20260502221304 23 220 3.2 17.7 0.00 0.00 0.00 10 1008.3
20260502221204 23 219 6.4 17.7 0.00 0.00 0.00 11 1008.4
20260502221105 23 216 6.4 17.7 0.00 0.00 0.00 10 1008.5
20260502221005 23 213 6.4 17.7 0.00 0.00 0.00 10 1008.5
20260502220905 23 210 6.4 17.7 0.00 0.00 0.00 10 1008.4
20260502220804 23 207 6.4 17.7 0.00 0.00 0.00 11 1008.4
20260502220604 23 207 9.7 17.7 0.00 0.00 0.00 10 1008.3
20260502220505 23 212 9.7 17.7 0.00 0.00 0.00 10 1008.6
20260502220304 23 218 9.7 17.7 0.00 0.00 0.00 10 1008.5
20260502220105 23 220 8.0 17.7 0.00 0.00 0.00 10 1008.5
20260502220004 23 228 11.3 17.7 0.00 0.00 0.00 10 1008.5
20260502215905 23 236 4.8 17.7 0.00 0.00 0.00 10 1008.5
20260502215804 23 246 11.3 19.3 0.00 0.00 0.00 10 1008.5
20260502215705 23 239 6.4 19.3 0.00 0.00 0.00 10 1008.5
20260502215605 23 231 8.0 19.3 0.00 0.00 0.00 10 1008.7
20260502215504 23 226 11.3 19.3 0.00 0.00 0.00 10 1008.6
20260502215405 23 226 8.0 22.5 0.00 0.00 0.00 10 1008.5
20260502215204 23 223 6.4 22.5 0.00 0.00 0.00 10 1008.5
20260502215105 23 226 6.4 22.5 0.00 0.00 0.00 10 1008.5
20260502215004 23 230 6.4 22.5 0.00 0.00 0.00 10 1008.6
20260502214904 23 230 6.4 22.5 0.00 0.00 0.00 10 1008.6
20260502214805 23 225 11.3 22.5 0.00 0.00 0.00 10 1008.6
20260502214704 23 230 12.9 22.5 0.00 0.00 0.00 10 1008.7
20260502214505 24 236 14.5 22.5 0.00 0.00 0.00 10 1008.7
20260502214305 24 228 8.0 19.3 0.00 0.00 0.00 10 1008.7
20260502214204 24 228 9.7 19.3 0.00 0.00 0.00 10 1008.7
20260502214105 24 225 8.0 19.3 0.00 0.00 0.00 10 1008.8
20260502214005 24 220 8.0 19.3 0.00 0.00 0.00 10 1008.7
20260502213905 24 215 12.9 19.3 0.00 0.00 0.00 10 1008.7
20260502213805 24 211 14.5 19.3 0.00 0.00 0.00 10 1008.8
20260502213605 24 210 12.9 17.7 0.00 0.00 0.00 10 1008.8
20260502213504 24 216 12.9 17.7 0.00 0.00 0.00 10 1008.8
20260502213405 24 228 12.9 19.3 0.00 0.00 0.00 10 1008.8
20260502213304 24 231 8.0 19.3 0.00 0.00 0.00 10 1008.9
20260502213204 24 230 6.4 19.3 0.00 0.00 0.00 10 1008.9
20260502213104 24 234 6.4 19.3 0.00 0.00 0.00 10 1009.0
20260502212905 24 237 6.4 19.3 0.00 0.00 0.00 10 1009.0
20260502212804 24 243 4.8 19.3 0.00 0.00 0.00 10 1009.0
20260502212704 24 251 6.4 19.3 0.00 0.00 0.00 10 1009.0
20260502212605 24 244 6.4 19.3 0.00 0.00 0.00 10 1008.9
20260502212504 24 243 9.7 24.1 0.00 0.00 0.00 10 1009.0
20260502212404 24 242 8.0 24.1 0.00 0.00 0.00 10 1009.0
20260502212305 24 241 9.7 24.1 0.00 0.00 0.00 10 1009.0
20260502212204 24 240 8.0 24.1 0.00 0.00 0.00 10 1009.0
20260502212105 24 234 6.4 24.1 0.00 0.00 0.00 10 1009.0
20260502212004 24 226 6.4 24.1 0.00 0.00 0.00 10 1009.0
20260502211904 24 222 6.4 24.1 0.00 0.00 0.00 10 1009.0
20260502211805 24 210 3.2 24.1 0.00 0.00 0.00 10 1009.1
20260502211704 24 187 11.3 24.1 0.00 0.00 0.00 10 1009.1
20260502211605 24 160 16.1 24.1 0.00 0.00 0.00 10 1009.1
20260502211504 24 148 9.7 17.7 0.00 0.00 0.00 10 1009.1
20260502211404 24 147 3.2 17.7 0.00 0.00 0.00 10 1009.2
20260502211305 24 155 3.2 17.7 0.00 0.00 0.00 10 1009.0
20260502211105 24 137 3.2 22.5 0.00 0.00 0.00 10 1009.0
20260502210904 24 158 3.2 22.5 0.00 0.00 0.00 10 1009.1
20260502210704 24 197 4.8 29.0 0.00 0.00 0.00 10 1009.1
20260502210604 24 206 11.3 29.0 0.00 0.00 0.00 10 1009.2
20260502210305 23 216 3.2 29.0 0.00 0.00 0.00 10 1009.2
20260502210205 23 223 12.9 29.0 0.00 0.00 0.00 10 1009.3
20260502210104 23 223 9.7 29.0 0.00 0.00 0.00 10 1009.3
20260502210005 23 222 8.0 29.0 0.00 0.00 0.00 10 1009.3
20260502205904 23 222 11.3 29.0 0.00 0.00 0.00 10 1009.3
20260502205805 23 222 17.7 29.0 0.00 0.00 0.00 10 1009.2
20260502205704 23 222 9.7 22.5 0.00 0.00 0.00 10 1009.2
20260502205605 23 222 11.3 22.5 0.00 0.00 0.00 10 1009.3
20260502205504 23 222 11.3 22.5 0.00 0.00 0.00 10 1009.3
20260502205405 23 224 6.4 22.5 0.00 0.00 0.00 10 1009.4
20260502205204 23 223 8.0 22.5 0.00 0.00 0.00 10 1009.4
20260502205004 23 225 8.0 22.5 0.00 0.00 0.00 10 1009.3
20260502204905 23 225 8.0 22.5 0.00 0.00 0.00 10 1009.4
20260502204805 23 225 12.9 22.5 0.00 0.00 0.00 10 1009.3
20260502204704 23 227 14.5 22.5 0.00 0.00 0.00 10 1009.2
20260502204605 23 233 9.7 19.3 0.00 0.00 0.00 10 1009.3
20260502204504 23 229 9.7 19.3 0.00 0.00 0.00 10 1009.3
20260502204405 23 229 11.3 19.3 0.00 0.00 0.00 10 1009.4
20260502204105 24 230 9.7 17.7 0.00 0.00 0.00 10 1009.4
20260502203904 23 232 3.2 17.7 0.00 0.00 0.00 10 1009.4
20260502203805 23 237 3.2 19.3 0.00 0.00 0.00 10 1009.4
20260502203604 24 232 11.3 22.5 0.00 0.00 0.00 10 1009.5
20260502203404 23 236 11.3 22.5 0.00 0.00 0.00 10 1009.3
20260502203304 23 242 11.3 24.1 0.00 0.00 0.00 10 1009.4
20260502203205 23 244 11.3 24.1 0.00 0.00 0.00 10 1009.4
20260502203104 23 244 11.3 24.1 0.00 0.00 0.00 10 1009.5
20260502202905 23 245 11.3 24.1 0.00 0.00 0.00 10 1009.4
20260502202805 23 240 14.5 24.1 0.00 0.00 0.00 10 1009.4
20260502202604 23 239 11.3 24.1 0.00 0.00 0.00 10 1009.5
20260502202504 23 237 12.9 24.1 0.00 0.00 0.00 10 1009.5
20260502202305 23 232 14.5 24.1 0.00 0.00 0.00 10 1009.4
20260502202205 23 224 17.7 24.1 0.00 0.00 0.00 10 1009.5
20260502202104 23 224 12.9 24.1 0.00 0.00 0.00 10 1009.5
20260502202004 23 226 12.9 24.1 0.00 0.00 0.00 10 1009.5
20260502201904 23 227 12.9 24.1 0.00 0.00 0.00 10 1009.6
20260502201804 23 227 9.7 24.1 0.00 0.00 0.00 10 1009.6
20260502201705 23 235 12.9 27.4 0.00 0.00 0.00 10 1009.5
20260502201604 23 243 12.9 27.4 0.00 0.00 0.00 10 1009.6
20260502201405 23 244 14.5 27.4 0.00 0.00 0.00 10 1009.6
20260502201305 23 245 12.9 27.4 0.00 0.00 0.00 10 1009.6
20260502201205 23 247 11.3 27.4 0.00 0.00 0.00 10 1009.7
20260502201104 23 245 12.9 27.4 0.00 0.00 0.00 10 1009.6
20260502201005 23 238 14.5 27.4 0.00 0.00 0.00 10 1009.6
20260502200904 23 235 14.5 27.4 0.00 0.00 0.00 10 1009.5
20260502200805 23 232 16.1 27.4 0.00 0.00 0.00 10 1009.7
20260502200704 23 224 17.7 27.4 0.00 0.00 0.00 10 1009.7
20260502200605 23 217 19.3 27.4 0.00 0.00 0.00 10 1009.6
20260502200504 23 218 14.5 27.4 0.00 0.00 0.00 10 1009.7
20260502200205 23 221 12.9 27.4 0.00 0.00 0.00 10 1009.6
20260502200104 23 224 16.1 27.4 0.00 0.00 0.00 10 1009.7
20260502200004 23 235 9.7 27.4 0.00 0.00 0.00 10 1009.7
20260502195904 23 241 14.5 27.4 0.00 0.00 0.00 10 1009.6
20260502195804 23 250 6.4 19.3 0.00 0.00 0.00 10 1009.7
20260502195605 23 243 6.4 24.1 0.00 0.00 0.00 10 1009.8
20260502195504 23 231 4.8 24.1 0.00 0.00 0.00 10 1009.7
20260502195405 23 226 9.7 24.1 0.00 0.00 0.00 10 1009.8
20260502195305 23 220 11.3 24.1 0.00 0.00 0.00 10 1009.9
20260502195104 23 220 6.4 24.1 0.00 0.00 0.00 11 1009.9
20260502195005 23 218 6.4 27.4 0.00 0.00 0.00 11 1009.8
20260502194904 23 213 6.4 27.4 0.00 0.00 0.00 11 1009.8
20260502194705 23 212 14.5 27.4 0.00 0.00 0.00 10 1009.9
20260502194604 23 215 8.0 27.4 0.00 0.00 0.00 10 1009.9
20260502194304 23 227 9.7 27.4 0.00 0.00 0.00 10 1009.9
20260502194205 23 228 9.7 27.4 0.00 0.00 0.00 10 1010.0
20260502194005 23 222 12.9 22.5 0.00 0.00 0.00 10 1009.9
20260502193804 23 225 9.7 22.5 0.00 0.00 0.00 10 1009.9
20260502193705 23 223 14.5 22.5 0.00 0.00 0.00 10 1010.0
20260502193604 23 223 12.9 19.3 0.00 0.00 0.00 10 1009.9
20260502193504 23 223 11.3 19.3 0.00 0.00 0.00 10 1010.0
20260502193404 23 222 9.7 19.3 0.00 0.00 0.00 10 1010.1
20260502193304 23 222 12.9 19.3 0.00 0.00 0.00 10 1010.1
20260502193205 23 223 6.4 19.3 0.00 0.00 0.00 10 1010.0
20260502193104 23 224 4.8 19.3 0.00 0.00 0.00 10 1010.0
20260502193004 23 228 14.5 24.1 0.00 0.00 0.00 10 1010.0
20260502192904 23 230 8.0 24.1 0.00 0.00 0.00 10 1010.0
20260502192505 23 235 11.3 24.1 0.00 0.00 0.00 10 1009.9
20260502192405 23 240 8.0 24.1 0.00 0.00 0.00 10 1010.0
20260502192305 23 244 9.7 24.1 0.00 0.00 0.00 10 1010.0
20260502192205 23 245 11.3 24.1 0.00 0.00 0.00 10 1010.0
20260502192104 23 251 12.9 24.1 0.00 0.00 0.00 10 1009.9
20260502192005 23 251 12.9 24.1 0.00 0.00 0.00 10 1010.0
20260502191804 23 248 9.7 24.1 0.00 0.00 0.00 10 1009.9
20260502191706 23 249 9.7 24.1 0.00 0.00 0.00 10 1010.0
20260502191604 23 251 12.9 17.7 0.00 0.00 0.00 11 1010.0
20260502191505 23 243 12.9 17.7 0.00 0.00 0.00 10 1010.0
20260502191404 23 235 8.0 17.7 0.00 0.00 0.00 11 1010.0
20260502191304 23 230 8.0 17.7 0.00 0.00 0.00 10 1010.0
20260502191204 23 228 11.3 17.7 0.00 0.00 0.00 11 1010.0
20260502191104 23 222 11.3 17.7 0.00 0.00 0.00 11 1010.1
20260502191005 23 222 6.4 17.7 0.00 0.00 0.00 10 1010.1
20260502190904 23 221 8.0 17.7 0.00 0.00 0.00 10 1010.1
20260502190805 23 229 9.7 17.7 0.00 0.00 0.00 11 1010.1
20260502190705 23 229 1.6 17.7 0.00 0.00 0.00 10 1010.2
20260502190505 23 233 1.6 17.7 0.00 0.00 0.00 10 1010.3
20260502190404 23 232 1.6 17.7 0.00 0.00 0.00 10 1010.1
20260502190304 23 244 1.6 20.9 0.00 0.00 0.00 10 1010.1
20260502190205 23 248 1.6 20.9 0.00 0.00 0.00 10 1010.1
20260502190104 23 246 1.6 20.9 0.00 0.00 0.00 10 1010.2
20260502190005 23 243 6.4 20.9 0.00 0.00 0.00 10 1010.3
20260502185904 23 246 6.4 20.9 0.00 0.00 0.00 10 1010.3
20260502185804 23 237 8.0 20.9 0.00 0.00 0.00 10 1010.2
20260502185704 23 237 11.3 20.9 0.00 0.00 0.00 10 1010.2
20260502185604 23 232 3.2 20.9 0.00 0.00 0.00 11 1010.2
20260502185505 23 230 6.4 20.9 0.00 0.00 0.00 12 1010.2
20260502185404 23 231 6.4 20.9 0.00 0.00 0.00 11 1010.2
20260502185305 23 229 14.5 20.9 0.00 0.00 0.00 11 1010.1
20260502185204 23 229 8.0 12.9 0.00 0.00 0.00 11 1010.3
20260502185105 23 228 8.0 12.9 0.00 0.00 0.00 11 1010.3
20260502185004 23 225 8.0 12.9 0.00 0.00 0.00 11 1010.3
20260502184905 23 221 8.0 12.9 0.00 0.00 0.00 11 1010.3
20260502184804 23 220 8.0 12.9 0.00 0.00 0.00 11 1010.4
20260502184604 23 203 8.0 12.9 0.00 0.00 0.00 11 1010.4
20260502184504 23 184 8.0 12.9 0.00 0.00 0.00 11 1010.4
20260502184406 23 164 3.2 12.9 0.00 0.00 0.00 11 1010.4
20260502184304 23 149 1.6 12.9 0.00 0.00 0.00 11 1010.4
20260502184205 23 135 3.2 12.9 0.00 0.00 0.00 12 1010.4
20260502184104 23 130 1.6 12.9 0.00 0.00 0.00 12 1010.4
20260502183605 23 110 3.2 12.9 0.00 0.00 0.00 11 1010.6
20260502183504 23 115 3.2 12.9 0.00 0.00 0.00 11 1010.5
20260502183404 22 121 1.6 12.9 0.00 0.00 0.00 11 1010.5
20260502183306 22 134 4.8 12.9 0.00 0.00 0.00 11 1010.6
20260502183105 22 148 6.4 12.9 0.00 0.00 0.00 11 1010.6
20260502182904 22 190 6.4 12.9 0.00 0.00 0.00 11 1010.5
20260502182704 22 221 1.6 6.4 0.00 0.00 0.00 11 1010.6
20260502182604 22 214 3.2 6.4 0.00 0.00 0.00 11 1010.6
20260502182504 22 189 3.2 6.4 0.00 0.00 0.00 11 1010.6
20260502182404 22 151 3.2 12.9 0.00 0.00 0.00 11 1010.6
20260502182204 22 83 1.6 14.5 0.00 0.00 0.00 11 1010.6
20260502182105 22 86 3.2 14.5 0.00 0.00 0.00 11 1010.7
20260502182005 22 85 1.6 14.5 0.00 0.00 0.00 11 1010.8
20260502181905 22 78 1.6 14.5 0.00 0.00 0.00 11 1010.8
20260502181804 22 0 0.0 14.5 0.00 0.00 0.00 11 1010.6
20260502181705 22 64 3.2 14.5 0.00 0.00 0.00 11 1010.7
20260502181604 22 56 4.8 14.5 0.00 0.00 0.00 11 1010.8
20260502181405 22 45 6.4 14.5 0.00 0.00 0.00 10 1010.7
20260502181304 22 42 9.7 14.5 0.00 0.00 0.00 10 1010.8
20260502181204 22 34 3.2 14.5 0.00 0.00 0.00 11 1010.9
20260502181104 22 9 4.8 14.5 0.00 0.00 0.00 10 1010.8
20260502180904 22 325 3.2 12.9 0.00 0.00 0.00 11 1010.9
20260502180804 22 334 4.8 12.9 0.00 0.00 0.00 11 1010.8
20260502180704 22 332 6.4 12.9 0.00 0.00 0.00 11 1010.8
20260502180604 22 323 3.2 12.9 0.00 0.00 0.00 11 1010.8
20260502180504 22 323 3.2 12.9 0.00 0.00 0.00 11 1010.8
20260502180405 22 322 3.2 12.9 0.00 0.00 0.00 11 1010.9
20260502180304 22 317 1.6 12.9 0.00 0.00 0.00 12 1010.9
20260502180205 21 320 4.8 12.9 0.00 0.00 0.00 11 1010.9
20260502180104 21 325 4.8 12.9 0.00 0.00 0.00 11 1010.8
20260502170504 18 312 3.2 9.7 0.00 0.00 0.00 14 1011.2
20260502170405 18 309 3.2 9.7 0.00 0.00 0.00 13 1011.2
20260502170304 18 312 1.6 9.7 0.00 0.00 0.00 14 1011.2
20260502170204 18 305 1.6 9.7 0.00 0.00 0.00 14 1011.2
20260502164304 17 320 3.2 9.7 0.00 0.00 0.00 15 1011.5
20260502164205 17 320 6.4 9.7 0.00 0.00 0.00 14 1011.5
20260502164004 17 326 4.8 9.7 0.00 0.00 0.00 15 1011.4
20260502163904 17 328 3.2 9.7 0.00 0.00 0.00 14 1011.4
20260502163804 17 331 4.8 9.7 0.00 0.00 0.00 14 1011.4
20260502163704 17 331 4.8 9.7 0.00 0.00 0.00 14 1011.5
20260502163504 17 344 3.2 8.0 0.00 0.00 0.00 15 1011.4
20260502163404 17 353 3.2 8.0 0.00 0.00 0.00 15 1011.4
20260502163305 17 356 3.2 8.0 0.00 0.00 0.00 15 1011.4
20260502163204 17 352 3.2 9.7 0.00 0.00 0.00 16 1011.4
20260502163104 17 352 3.2 9.7 0.00 0.00 0.00 16 1011.4
20260502162904 17 350 1.6 9.7 0.00 0.00 0.00 17 1011.4
20260502162704 16 11 3.2 9.7 0.00 0.00 0.00 17 1011.5
20260502162605 16 6 1.6 9.7 0.00 0.00 0.00 17 1011.4
20260502162404 16 355 3.2 9.7 0.00 0.00 0.00 17 1011.5
20260502162305 16 345 1.6 9.7 0.00 0.00 0.00 18 1011.4
20260502162204 16 335 3.2 9.7 0.00 0.00 0.00 19 1011.4
20260502161904 16 335 3.2 8.0 0.00 0.00 0.00 20 1011.4
20260502161804 16 326 3.2 6.4 0.00 0.00 0.00 21 1011.5
20260502161704 16 0 0.0 6.4 0.00 0.00 0.00 21 1011.5
20260502161604 15 311 3.2 6.4 0.00 0.00 0.00 22 1011.4
20260502161504 15 308 3.2 6.4 0.00 0.00 0.00 22 1011.5
20260502161404 15 304 3.2 6.4 0.00 0.00 0.00 22 1011.6
20260502161204 15 0 0.0 6.4 0.00 0.00 0.00 23 1011.6
20260502161104 15 314 3.2 6.4 0.00 0.00 0.00 23 1011.6
20260502160904 15 301 3.2 6.4 0.00 0.00 0.00 23 1011.5
20260502160804 15 289 3.2 6.4 0.00 0.00 0.00 23 1011.6
20260502160705 15 295 3.2 6.4 0.00 0.00 0.00 23 1011.4
20260502160604 15 301 1.6 6.4 0.00 0.00 0.00 24 1011.4
20260502160404 15 0 0.0 3.2 0.00 0.00 0.00 24 1011.4
20260502160304 14 0 0.0 3.2 0.00 0.00 0.00 24 1011.5
20260502160204 14 313 1.6 3.2 0.00 0.00 0.00 24 1011.4
20260502160105 14 344 1.6 3.2 0.00 0.00 0.00 25 1011.4
20260502152305 11 83 1.6 4.8 0.00 0.00 0.00 33 1011.5
20260502152205 11 83 1.6 4.8 0.00 0.00 0.00 33 1011.5
20260502152104 11 0 0.0 4.8 0.00 0.00 0.00 33 1011.6
20260502151904 11 0 0.0 3.2 0.00 0.00 0.00 33 1011.4
20260502151705 11 89 3.2 3.2 0.00 0.00 0.00 33 1011.4
20260502151604 10 0 0.0 3.2 0.00 0.00 0.00 33 1011.5
20260502151504 10 0 0.0 3.2 0.00 0.00 0.00 33 1011.4
20260502151304 10 101 1.6 3.2 0.00 0.00 0.00 33 1011.5
20260502151205 10 107 1.6 3.2 0.00 0.00 0.00 34 1011.5
20260502151004 10 0 0.0 3.2 0.00 0.00 0.00 34 1011.5
20260502150905 10 0 0.0 3.2 0.00 0.00 0.00 34 1011.5
20260502150604 9 0 0.0 1.6 0.00 0.00 0.00 38 1011.5
20260502150305 9 0 0.0 1.6 0.00 0.00 0.00 38 1011.5
20260502150204 9 0 0.0 1.6 0.00 0.00 0.00 38 1011.5
20260502150105 9 0 0.0 1.6 0.00 0.00 0.00 38 1011.5
20260502140104 5 0 0.0 3.2 0.00 0.00 0.00 48 1011.4
20260502130704 4 0 0.0 1.6 0.00 0.00 0.00 45 1010.9
20260502130604 4 0 0.0 1.6 0.00 0.00 0.00 45 1010.8
20260502130403 4 0 0.0 1.6 0.00 0.00 0.00 45 1010.9
20260502130304 4 0 0.0 1.6 0.00 0.00 0.00 45 1010.9
20260502130204 4 0 0.0 1.6 0.00 0.00 0.00 45 1010.8
20260502123804 3 0 0.0 1.6 0.00 0.00 0.00 43 1010.7
20260502123504 3 0 0.0 1.6 0.00 0.00 0.00 43 1010.7
20260502123404 3 0 0.0 1.6 0.00 0.00 0.00 43 1010.6
20260502123304 3 0 0.0 1.6 0.00 0.00 0.00 43 1010.7
20260502123204 3 0 0.0 1.6 0.00 0.00 0.00 43 1010.8
20260502123104 3 0 0.0 1.6 0.00 0.00 0.00 43 1010.6
20260502123004 3 0 0.0 1.6 0.00 0.00 0.00 43 1010.7
20260502122904 3 0 0.0 1.6 0.00 0.00 0.00 43 1010.8
20260502122705 3 0 0.0 0.0 0.00 0.00 0.00 43 1010.8
20260502122604 3 0 0.0 0.0 0.00 0.00 0.00 43 1010.7
20260502122504 3 0 0.0 0.0 0.00 0.00 0.00 43 1010.7
20260502122404 3 0 0.0 0.0 0.00 0.00 0.00 44 1010.8
20260502122306 3 0 0.0 0.0 0.00 0.00 0.00 44 1010.8
20260502122204 3 0 0.0 0.0 0.00 0.00 0.00 44 1010.8
20260502122104 3 0 0.0 0.0 0.00 0.00 0.00 44 1010.7
20260502121904 3 0 0.0 1.6 0.00 0.00 0.00 43 1010.7
20260502121804 3 0 0.0 1.6 0.00 0.00 0.00 43 1010.6
20260502121703 3 0 0.0 1.6 0.00 0.00 0.00 43 1010.6
20260502121604 3 0 0.0 1.6 0.00 0.00 0.00 43 1010.6
20260502121405 3 0 0.0 1.6 0.00 0.00 0.00 42 1010.7
20260502121204 3 0 0.0 1.6 0.00 0.00 0.00 42 1010.8
20260502121105 3 0 0.0 1.6 0.00 0.00 0.00 41 1010.7
20260502121005 4 0 0.0 1.6 0.00 0.00 0.00 41 1010.6
20260502120904 4 0 0.0 1.6 0.00 0.00 0.00 41 1010.7
20260502120704 4 0 0.0 1.6 0.00 0.00 0.00 40 1010.6
20260502120604 4 0 0.0 1.6 0.00 0.00 0.00 40 1010.6
20260502120504 4 0 0.0 3.2 0.00 0.00 0.00 40 1010.6
20260502120404 4 0 0.0 3.2 0.00 0.00 0.00 41 1010.7
20260502120305 4 0 0.0 3.2 0.00 0.00 0.00 41 1010.6
20260502120204 4 0 0.0 3.2 0.00 0.00 0.00 41 1010.7
20260502120104 4 0 0.0 3.2 0.00 0.00 0.00 41 1010.6
20260502115904 4 0 0.0 3.2 0.00 0.00 0.00 41 1010.7
20260502115803 4 0 0.0 3.2 0.00 0.00 0.00 40 1010.7
20260502115604 4 0 0.0 3.2 0.00 0.00 0.00 40 1010.6
20260502115504 4 0 0.0 3.2 0.00 0.00 0.00 40 1010.7
20260502115404 4 0 0.0 3.2 0.00 0.00 0.00 40 1010.6
20260502115306 4 0 0.0 3.2 0.00 0.00 0.00 40 1010.6
20260502115204 4 0 0.0 3.2 0.00 0.00 0.00 40 1010.6
20260502115105 4 0 0.0 3.2 0.00 0.00 0.00 40 1010.6
20260502115004 4 201 1.6 3.2 0.00 0.00 0.00 40 1010.6
20260502114903 4 170 3.2 3.2 0.00 0.00 0.00 40 1010.6
20260502114804 4 0 0.0 1.6 0.00 0.00 0.00 39 1010.6
20260502114704 4 0 0.0 1.6 0.00 0.00 0.00 39 1010.7
20260502114504 4 0 0.0 3.2 0.00 0.00 0.00 38 1010.6
20260502114404 4 0 0.0 3.2 0.00 0.00 0.00 38 1010.8
20260502114303 5 0 0.0 3.2 0.00 0.00 0.00 38 1010.6
20260502114204 5 0 0.0 3.2 0.00 0.00 0.00 38 1010.7
20260502114104 5 0 0.0 3.2 0.00 0.00 0.00 37 1010.7
20260502114004 5 0 0.0 3.2 0.00 0.00 0.00 37 1010.6
20260502113904 5 0 0.0 3.2 0.00 0.00 0.00 37 1010.7
20260502113803 5 0 0.0 3.2 0.00 0.00 0.00 37 1010.7
20260502113604 5 0 0.0 3.2 0.00 0.00 0.00 37 1010.7
20260502113504 5 0 0.0 1.6 0.00 0.00 0.00 37 1010.7
20260502113404 5 0 0.0 1.6 0.00 0.00 0.00 37 1010.8
20260502113304 5 0 0.0 1.6 0.00 0.00 0.00 37 1010.6
20260502113104 5 0 0.0 1.6 0.00 0.00 0.00 35 1010.7
20260502113004 5 0 0.0 1.6 0.00 0.00 0.00 35 1010.7
20260502112904 5 0 0.0 1.6 0.00 0.00 0.00 35 1010.7
20260502112804 5 0 0.0 1.6 0.00 0.00 0.00 36 1010.7
20260502112704 5 0 0.0 1.6 0.00 0.00 0.00 36 1010.7
20260502112604 5 0 0.0 1.6 0.00 0.00 0.00 36 1010.6
20260502112504 5 0 0.0 1.6 0.00 0.00 0.00 36 1010.7
20260502112404 5 0 0.0 3.2 0.00 0.00 0.00 36 1010.7
20260502112305 5 0 0.0 4.8 0.00 0.00 0.00 36 1010.7
20260502112203 5 0 0.0 4.8 0.00 0.00 0.00 37 1010.7
20260502112104 5 0 0.0 4.8 0.00 0.00 0.00 37 1010.7
20260502112004 5 0 0.0 4.8 0.00 0.00 0.00 38 1010.7
20260502111903 4 0 0.0 4.8 0.00 0.00 0.00 38 1010.7
20260502111804 4 0 0.0 4.8 0.00 0.00 0.00 38 1010.7
20260502111704 4 0 0.0 4.8 0.00 0.00 0.00 38 1010.7
20260502111604 4 0 0.0 4.8 0.00 0.00 0.00 39 1010.8
20260502111504 4 0 0.0 4.8 0.00 0.00 0.00 39 1010.7
20260502111404 4 0 0.0 4.8 0.00 0.00 0.00 39 1010.7
20260502111204 3 90 3.2 3.2 0.00 0.00 0.00 39 1010.7
20260502111004 3 90 1.6 3.2 0.00 0.00 0.00 39 1010.7
20260502110904 3 0 0.0 1.6 0.00 0.00 0.00 39 1010.6
20260502110804 3 0 0.0 1.6 0.00 0.00 0.00 39 1010.5
20260502110704 4 0 0.0 0.0 0.00 0.00 0.00 38 1010.6
20260502110604 4 0 0.0 1.6 0.00 0.00 0.00 38 1010.6
20260502110505 4 0 0.0 1.6 0.00 0.00 0.00 38 1010.6
20260502110404 4 0 0.0 1.6 0.00 0.00 0.00 38 1010.7
20260502110104 4 0 0.0 3.2 0.00 0.00 0.00 38 1010.7
20260502110005 4 0 0.0 3.2 0.00 0.00 0.00 38 1010.7
20260502105904 4 0 0.0 3.2 0.00 0.00 0.00 38 1010.6
20260502105804 4 0 0.0 3.2 0.00 0.00 0.00 38 1010.5
20260502105704 4 0 0.0 3.2 0.00 0.00 0.00 38 1010.6
20260502105604 4 0 0.0 3.2 0.00 0.00 0.00 38 1010.7
20260502105504 4 0 0.0 3.2 0.00 0.00 0.00 38 1010.6
20260502105404 4 0 0.0 3.2 0.00 0.00 0.00 38 1010.6
20260502105306 4 0 0.0 3.2 0.00 0.00 0.00 38 1010.6
20260502105204 4 0 0.0 1.6 0.00 0.00 0.00 38 1010.6
20260502105104 4 0 0.0 1.6 0.00 0.00 0.00 38 1010.6
20260502105004 4 0 0.0 1.6 0.00 0.00 0.00 38 1010.6
20260502104906 4 0 0.0 1.6 0.00 0.00 0.00 38 1010.7
20260502104803 4 0 0.0 1.6 0.00 0.00 0.00 38 1010.7
20260502104704 4 0 0.0 1.6 0.00 0.00 0.00 38 1010.8
20260502104603 4 0 0.0 1.6 0.00 0.00 0.00 38 1010.7
20260502104505 4 0 0.0 1.6 0.00 0.00 0.00 38 1010.8
20260502104404 4 0 0.0 1.6 0.00 0.00 0.00 39 1010.7
20260502104304 4 0 0.0 1.6 0.00 0.00 0.00 39 1010.7
20260502104204 4 0 0.0 1.6 0.00 0.00 0.00 38 1010.8
20260502104104 4 0 0.0 1.6 0.00 0.00 0.00 38 1010.7
20260502104004 4 0 0.0 1.6 0.00 0.00 0.00 38 1010.7
20260502103904 4 0 0.0 1.6 0.00 0.00 0.00 38 1010.7
20260502103804 4 0 0.0 1.6 0.00 0.00 0.00 38 1010.7
20260502103704 5 0 0.0 1.6 0.00 0.00 0.00 38 1010.7
20260502103503 5 0 0.0 1.6 0.00 0.00 0.00 38 1010.8
20260502103404 5 0 0.0 1.6 0.00 0.00 0.00 38 1010.6
20260502103304 5 0 0.0 1.6 0.00 0.00 0.00 37 1010.7
20260502103205 5 0 0.0 1.6 0.00 0.00 0.00 37 1010.7
20260502103104 5 0 0.0 1.6 0.00 0.00 0.00 38 1010.8
20260502103004 5 0 0.0 1.6 0.00 0.00 0.00 38 1010.7
20260502102904 5 0 0.0 0.0 0.00 0.00 0.00 38 1010.7
20260502102804 5 0 0.0 0.0 0.00 0.00 0.00 37 1010.7
20260502102704 5 0 0.0 0.0 0.00 0.00 0.00 37 1010.7
20260502102604 5 0 0.0 0.0 0.00 0.00 0.00 37 1010.6
20260502102503 5 0 0.0 1.6 0.00 0.00 0.00 37 1010.7
20260502102404 5 0 0.0 1.6 0.00 0.00 0.00 37 1010.7
20260502102204 5 0 0.0 1.6 0.00 0.00 0.00 37 1010.7
20260502102104 5 0 0.0 1.6 0.00 0.00 0.00 37 1010.7
20260502102004 5 0 0.0 1.6 0.00 0.00 0.00 37 1010.6
20260502101903 5 0 0.0 1.6 0.00 0.00 0.00 37 1010.7
20260502101804 5 0 0.0 3.2 0.00 0.00 0.00 37 1010.8
20260502101704 5 0 0.0 3.2 0.00 0.00 0.00 37 1010.6
20260502101604 5 0 0.0 3.2 0.00 0.00 0.00 37 1010.6
20260502101504 5 0 0.0 3.2 0.00 0.00 0.00 37 1010.7
20260502101404 5 0 0.0 3.2 0.00 0.00 0.00 37 1010.6
20260502101303 5 0 0.0 3.2 0.00 0.00 0.00 37 1010.6
20260502101204 5 0 0.0 3.2 0.00 0.00 0.00 37 1010.6
20260502101104 5 0 0.0 3.2 0.00 0.00 0.00 37 1010.6
20260502101004 5 0 0.0 3.2 0.00 0.00 0.00 37 1010.6
20260502100904 5 0 0.0 3.2 0.00 0.00 0.00 37 1010.6
20260502100804 5 0 0.0 1.6 0.00 0.00 0.00 35 1010.6
20260502100704 5 0 0.0 1.6 0.00 0.00 0.00 35 1010.7
20260502100604 5 0 0.0 1.6 0.00 0.00 0.00 35 1010.5
20260502100504 5 0 0.0 1.6 0.00 0.00 0.00 35 1010.5
20260502100204 5 0 0.0 4.8 0.00 0.00 0.00 35 1010.5
20260502100104 5 0 0.0 4.8 0.00 0.00 0.00 35 1010.6
20260502091504 6 0 0.0 4.8 0.00 0.00 0.00 37 1010.8
20260502091404 6 0 0.0 4.8 0.00 0.00 0.00 36 1011.0
20260502091304 6 0 0.0 4.8 0.00 0.00 0.00 36 1010.9
20260502091204 6 0 0.0 4.8 0.00 0.00 0.00 35 1011.0
20260502091104 6 0 0.0 4.8 0.00 0.00 0.00 35 1011.0
20260502091004 6 110 3.2 4.8 0.00 0.00 0.00 34 1011.0
20260502090905 6 118 3.2 4.8 0.00 0.00 0.00 34 1010.9
20260502090804 6 0 0.0 1.6 0.00 0.00 0.00 34 1010.9
20260502090704 7 0 0.0 1.6 0.00 0.00 0.00 33 1011.0
20260502090604 7 0 0.0 1.6 0.00 0.00 0.00 33 1011.0
20260502090504 7 0 0.0 1.6 0.00 0.00 0.00 33 1011.0
20260502090404 7 0 0.0 1.6 0.00 0.00 0.00 33 1011.0
20260502090304 7 0 0.0 1.6 0.00 0.00 0.00 33 1011.1
20260502090203 7 0 0.0 1.6 0.00 0.00 0.00 33 1011.0
20260502090104 7 0 0.0 1.6 0.00 0.00 0.00 33 1011.0
20260502080104 7 0 0.0 3.2 0.00 0.00 0.00 27 1011.4
20260502071504 8 101 1.6 4.8 0.00 0.00 0.00 25 1011.4
20260502071303 8 0 0.0 4.8 0.00 0.00 0.00 25 1011.4
20260502071204 8 92 3.2 4.8 0.00 0.00 0.00 25 1011.4
20260502071104 8 93 1.6 4.8 0.00 0.00 0.00 26 1011.4
20260502071003 8 0 0.0 3.2 0.00 0.00 0.00 26 1011.4
20260502070904 8 0 0.0 3.2 0.00 0.00 0.00 26 1011.5
20260502070803 8 0 0.0 3.2 0.00 0.00 0.00 27 1011.5
20260502070704 9 91 1.6 3.2 0.00 0.00 0.00 28 1011.4
20260502070604 9 91 1.6 3.2 0.00 0.00 0.00 28 1011.4
20260502070504 9 91 1.6 4.8 0.00 0.00 0.00 28 1011.5